Wind_Speed
3 3 4 6 7 7 9 12 15 20 24 26 28 29 28 28 27 25 23 21 21 22 22 23 25 26 27 26 25 23 21 18 14 13 13 13 15 15 16 18 20 22 24
5 6 7 7 8 11 13 17 20 24 27 28 29 29 28 28 27 26 25 24 24 23 23 24 25 27 29 30 29 27 26 24 23 19 14 13 15 16 17 18 20 22 24
8 7 7 8 11 12 17 21 22 24 26 30 30 30 30 29 28 26 25 24 25 25 26 26 26 27 27 28 30 31 29 29 27 27 23 17 15 14 16 19 20 20 24
7 7 9 11 16 20 22 21 25 28 31 33 31 28 27 26 25 24 22 21 20 21 23 24 25 27 27 27 27 30 31 33 32 29 28 26 20 17 14 16 18 20 22
8 13 15 16 19 20 20 23 27 31 30 29 27 24 21 22 23 22 20 19 19 20 22 25 26 28 30 31 32 30 30 33 33 34 31 28 28 24 20 17 17 17 20
13 13 15 16 16 20 24 28 29 26 26 27 26 21 22 19 16 14 19 24 22 21 25 27 28 31 32 31 33 35 35 32 34 35 33 35 31 28 25 23 19 19 19
11 13 12 15 20 25 27 26 26 27 25 25 20 18 16 10 10 19 16 18 21 27 27 29 27 31 32 33 33 32 35 38 37 35 35 33 34 34 33 27 25 22 21
11 13 16 21 24 21 22 24 24 26 25 24 21 15 10 13 10 12 16 23 23 24 23 28 30 32 32 33 33 33 30 31 37 37 35 36 33 33 34 34 29 27 24
15 19 23 24 20 21 24 26 26 23 22 19 19 10 9 8 21 13 20 17 20 24 24 25 24 23 23 25 26 27 29 30 30 34 33 34 36 32 34 35 33 30 26
18 18 20 21 21 22 26 26 27 23 20 14 13 9 12 15 17 19 14 19 18 25 24 24 24 22 21 20 21 21 23 26 26 28 29 29 32 33 32 34 35 33 29
18 18 20 22 23 23 23 23 24 24 17 14 10 11 12 13 14 17 26 22 22 19 19 19 18 20 21 19 21 20 21 24 24 24 24 25 25 29 30 28 29 35 32
18 20 20 22 23 23 24 24 28 17 15 13 11 11 13 15 17 17 21 22 25 25 23 20 18 18 17 21 17 15 14 17 20 20 19 18 19 22 24 24 26 29 27
20 21 23 22 22 22 24 26 25 16 13 13 14 14 15 14 16 16 18 21 23 28 29 22 23 20 21 18 18 18 15 12 16 20 20 17 14 16 21 22 23 30 25
21 22 22 22 22 24 23 24 21 15 15 15 16 17 17 15 19 20 18 19 27 30 31 30 26 24 23 22 25 29 23 22 16 19 20 21 18 14 15 18 25 26 22
21 20 20 23 24 25 24 24 22 15 16 16 18 20 20 20 21 23 25 21 23 33 36 34 32 24 25 25 26 28 26 27 27 24 25 24 22 18 13 13 17 20 32
20 22 25 25 26 27 27 22 27 17 14 18 20 22 22 23 25 25 24 23 22 26 36 30 30 29 28 28 27 27 26 28 28 28 27 27 27 22 17 14 15 21 26
24 26 24 24 23 24 24 28 15 12 17 19 21 23 25 27 25 24 24 24 23 24 31 36 31 29 29 28 27 25 23 24 24 26 25 25 26 27 23 19 16 16 22
28 26 23 19 17 21 27 17 11 14 17 20 21 25 29 26 26 25 25 25 25 25 27 34 32 29 24 25 25 24 22 23 24 24 25 23 23 22 24 22 19 16 22
29 24 20 17 21 23 12 11 11 17 20 20 26 29 31 28 27 25 25 26 24 22 22 25 32 27 26 24 21 21 22 25 23 25 26 25 24 24 21 20 20 17 18
25 22 19 17 17 14 9 12 16 16 19 25 29 31 31 28 25 25 24 23 22 22 22 24 28 26 22 21 16 17 19 19 22 21 21 23 23 23 22 20 18 16 16
22 21 16 13 11 9 13 11 15 20 25 28 28 29 30 29 25 21 19 20 21 22 22 23 24 23 22 20 19 20 20 18 18 17 17 15 14 13 14 17 18 18 15
20 15 9 8 9 13 11 16 19 24 27 27 28 29 26 23 18 20 17 14 17 23 25 22 24 24 24 21 19 18 18 17 16 16 15 14 10 11 12 12 16 21 18
16 12 11 12 11 10 15 19 25 26 25 25 26 25 22 18 18 17 17 22 22 22 23 25 25 24 22 18 18 19 17 18 17 15 12 16 14 14 14 19 19 19 21
14 14 15 13 11 14 18 24 25 23 23 24 24 22 18 18 17 17 22 21 19 20 19 19 20 22 20 20 20 20 22 18 19 19 17 18 16 16 13 18 25 19 20
14 14 13 12 14 17 23 23 22 22 22 23 22 18 17 18 17 18 19 20 20 19 17 21 20 18 18 21 21 19 19 17 16 15 14 15 14 13 11 13 18 24 20
14 15 14 14 16 20 21 20 20 21 21 21 20 19 20 18 16 18 18 18 18 19 21 19 16 14 15 15 14 15 16 19 19 14 11 12 12 9 8 9 15 19 21
Wind_Direction
226 246 264 286 297 307 312 314 319 325 329 331 332 333 330 324 319 314 309 304 295 288 284 282 282 284 288 288 288 283 279 276 281 294 303 293 278 266 261 259 254 249 244
254 260 266 287 304 307 310 319 323 328 331 331 329 326 322 316 311 307 303 300 297 293 290 287 284 281 278 280 282 281 279 274 275 275 277 291 288 279 267 261 260 254 251
264 272 289 297 296 308 320 317 320 324 328 329 328 324 319 314 311 308 304 298 293 290 287 286 286 284 283 279 278 277 277 277 273 272 270 270 281 284 273 264 259 255 252
271 280 291 298 305 309 310 319 321 322 322 324 323 320 316 312 311 310 307 303 299 295 290 286 284 284 284 284 279 275 276 272 274 272 269 269 264 273 276 265 261 256 253
288 295 291 294 306 308 317 323 325 322 321 321 319 317 313 307 304 300 299 301 301 298 294 292 287 284 283 283 284 282 276 275 273 268 267 263 266 259 262 263 262 258 253
297 296 297 310 313 320 322 321 323 325 324 321 319 314 317 311 294 283 294 296 297 302 302 298 295 293 289 284 281 282 282 278 274 272 268 263 256 261 255 257 258 258 257
292 298 313 317 319 322 325 330 327 325 321 320 327 319 322 309 257 289 290 291 300 302 299 301 302 303 299 295 291 283 279 280 277 271 271 267 261 257 258 256 253 253 259
303 317 317 321 325 328 327 329 331 334 329 325 325 325 317 301 282 273 280 295 300 305 306 307 309 308 308 303 296 293 288 280 277 274 267 268 268 260 254 254 254 253 251
316 314 313 320 328 332 333 333 329 329 326 322 322 327 314 290 307 305 305 309 312 314 313 313 312 311 309 304 296 291 288 288 284 280 275 265 264 267 257 251 252 254 253
306 316 322 329 329 328 330 332 333 326 321 319 320 311 306 299 304 306 302 302 303 313 315 315 312 310 310 309 294 290 287 289 290 287 283 274 261 262 264 254 249 251 253
320 327 328 323 318 315 316 325 329 323 316 318 311 311 311 309 304 301 307 311 306 306 307 321 325 315 308 302 289 292 288 286 292 294 295 289 277 261 260 263 252 250 250
319 317 314 309 303 308 314 319 323 311 315 321 319 313 315 314 313 309 307 310 307 309 309 311 311 311 317 313 285 280 290 290 294 298 301 307 297 278 260 253 250 237 242
307 302 302 305 302 303 312 311 320 308 312 315 317 316 313 309 308 308 308 308 304 306 307 302 305 301 303 296 307 292 287 288 295 295 301 306 319 293 271 243 239 234 227
305 303 303 305 304 302 301 315 313 304 306 312 311 318 317 312 310 306 301 302 303 301 301 303 303 301 298 285 285 287 293 278 290 304 300 302 308 318 291 261 250 242 235
312 309 310 307 305 298 293 306 295 287 295 301 309 316 315 313 305 298 293 296 298 300 298 300 300 298 294 288 284 287 282 280 281 285 291 295 304 308 312 281 269 269 256
320 316 312 301 295 293 288 299 295 280 284 289 302 309 311 308 302 295 295 295 293 290 292 296 294 294 294 290 284 283 280 272 273 276 280 282 287 295 301 302 282 261 263
319 315 300 291 292 291 299 301 282 277 284 290 293 300 302 302 300 298 296 295 293 290 290 293 293 295 294 293 290 286 273 266 271 277 279 279 278 280 290 294 300 275 241
323 317 306 303 291 294 298 285 268 282 293 293 294 299 302 301 300 300 299 296 292 290 288 292 295 297 292 291 289 285 269 259 261 274 278 278 280 281 279 285 292 299 261
323 316 309 299 297 297 279 271 284 294 298 296 301 303 303 302 302 301 300 296 293 290 286 287 294 295 296 298 288 284 275 264 264 270 276 276 274 276 277 276 279 292 284
323 316 309 303 303 294 284 290 300 301 300 302 304 304 305 305 304 304 299 297 297 292 290 289 290 294 295 294 301 295 283 270 264 263 271 275 275 272 269 266 256 267 279
322 316 307 296 289 304 304 305 308 305 306 308 311 311 309 311 309 305 301 299 297 297 295 291 291 293 294 294 291 284 288 286 275 261 266 274 280 276 261 262 250 245 252
325 326 322 332 312 296 294 305 309 312 314 316 316 316 317 320 316 312 313 317 315 304 296 293 289 287 290 287 293 287 277 279 290 263 265 268 275 277 256 251 240 227 235
323 316 314 309 299 293 302 310 316 317 319 319 320 322 321 321 320 316 317 318 313 307 300 292 290 287 281 288 291 292 281 271 271 274 278 273 278 276 266 244 226 221 221
315 305 304 303 288 298 308 314 317 319 320 324 327 325 321 321 318 321 319 316 313 311 305 304 305 286 277 281 282 281 284 284 269 266 267 271 276 274 273 251 240 225 200
305 306 306 289 289 303 311 315 318 320 325 328 327 328 323 319 319 324 320 319 318 319 314 308 302 301 291 286 280 278 275 279 264 268 255 252 266 267 267 259 243 237 219
296 294 289 283 294 306 311 315 319 325 328 329 334 332 331 330 329 325 322 319 324 322 322 321 315 313 310 308 300 276 263 259 263 281 249 248 262 266 286 268 244 238 237
Height
1585 1584 1585 1585 1585 1585 1584 1582 1581 1579 1577 1573 1571 1568 1566 1563 1561 1559 1557 1555 1552 1552 1551 1549 1548 1546 1544 1542 1542 1541 1541 1541 1540 1540 1540 1540 1539 1540 1541 1540 1542 1541 1543
1584 1583 1583 1584 1585 1584 1583 1581 1578 1575 1572 1570 1567 1564 1562 1558 1556 1554 1553 1550 1548 1546 1544 1543 1542 1540 1539 1537 1536 1535 1535 1536 1536 1535 1535 1535 1534 1533 1533 1534 1535 1535 1537
1583 1584 1583 1584 1583 1582 1578 1577 1574 1572 1569 1566 1563 1560 1557 1553 1550 1548 1547 1545 1543 1541 1539 1538 1536 1535 1533 1532 1530 1529 1528 1527 1528 1529 1529 1528 1528 1528 1527 1528 1529 1529 1532
1583 1583 1582 1581 1580 1577 1574 1573 1570 1568 1565 1561 1559 1556 1553 1549 1546 1543 1541 1539 1538 1536 1534 1532 1530 1529 1527 1525 1524 1523 1521 1520 1520 1520 1522 1522 1521 1522 1523 1524 1524 1523 1525
1581 1580 1578 1576 1576 1573 1570 1569 1566 1563 1559 1555 1553 1550 1549 1546 1543 1540 1537 1535 1532 1530 1528 1527 1525 1523 1522 1520 1518 1516 1515 1513 1512 1512 1513 1515 1516 1517 1518 1519 1519 1518 1519
1579 1578 1576 1574 1572 1569 1566 1564 1561 1558 1554 1549 1546 1544 1542 1540 1538 1536 1534 1531 1528 1525 1522 1520 1518 1515 1514 1513 1512 1510 1508 1507 1505 1504 1505 1506 1507 1508 1510 1511 1512 1513 1515
1577 1575 1572 1570 1568 1565 1563 1560 1557 1554 1551 1546 1542 1539 1536 1535 1534 1533 1530 1527 1524 1521 1518 1515 1512 1508 1506 1504 1503 1502 1501 1499 1498 1498 1497 1498 1499 1500 1502 1503 1505 1507 1509
1572 1570 1568 1566 1565 1563 1560 1558 1554 1550 1547 1542 1539 1536 1534 1534 1530 1528 1526 1524 1519 1517 1513 1510 1506 1503 1500 1497 1495 1493 1492 1491 1490 1490 1490 1490 1490 1492 1494 1496 1498 1500 1502
1570 1567 1565 1563 1561 1559 1557 1554 1550 1547 1543 1540 1537 1537 1533 1529 1526 1524 1522 1520 1516 1512 1509 1506 1502 1497 1494 1490 1489 1488 1485 1484 1483 1482 1483 1483 1483 1484 1485 1487 1490 1492 1493
1566 1564 1561 1559 1557 1555 1552 1549 1546 1543 1540 1537 1536 1534 1532 1529 1527 1520 1519 1517 1514 1510 1505 1501 1497 1493 1491 1486 1484 1483 1481 1479 1477 1476 1475 1474 1474 1475 1476 1478 1480 1483 1485
1563 1560 1558 1555 1553 1550 1548 1545 1541 1539 1536 1534 1533 1531 1529 1527 1524 1521 1514 1513 1510 1507 1504 1500 1496 1491 1487 1485 1482 1480 1478 1476 1473 1471 1469 1468 1467 1467 1468 1469 1471 1474 1477
1559 1557 1554 1551 1548 1545 1542 1539 1536 1534 1532 1530 1528 1527 1525 1523 1519 1516 1513 1510 1505 1500 1498 1495 1492 1489 1485 1482 1478 1475 1474 1472 1470 1467 1465 1463 1461 1460 1461 1462 1464 1466 1468
1554 1551 1548 1545 1542 1540 1538 1534 1532 1530 1528 1526 1524 1522 1520 1518 1515 1513 1510 1506 1502 1495 1491 1490 1486 1484 1481 1478 1475 1473 1470 1467 1465 1463 1461 1459 1456 1455 1455 1456 1458 1457 1460
1549 1546 1543 1540 1538 1536 1533 1530 1527 1527 1525 1522 1520 1517 1515 1513 1511 1508 1505 1502 1496 1491 1487 1482 1480 1476 1474 1473 1470 1468 1466 1464 1461 1459 1456 1454 1453 1451 1450 1450 1451 1451 1451
1544 1541 1538 1536 1533 1530 1528 1526 1523 1522 1521 1519 1516 1513 1510 1509 1506 1503 1500 1497 1494 1483 1477 1475 1471 1470 1467 1465 1463 1460 1458 1457 1456 1455 1453 1450 1449 1448 1447 1446 1446 1446 1447
1540 1536 1533 1530 1527 1525 1522 1520 1517 1516 1515 1515 1512 1508 1506 1503 1500 1497 1494 1491 1487 1481 1470 1470 1465 1462 1459 1456 1454 1452 1451 1449 1448 1447 1447 1446 1444 1444 1444 1442 1441 1441 1442
1535 1531 1527 1523 1521 1519 1516 1514 1511 1511 1511 1510 1507 1503 1501 1497 1494 1491 1488 1483 1480 1476 1468 1459 1459 1455 1451 1448 1445 1444 1443 1443 1442 1441 1440 1439 1439 1438 1438 1438 1437 1435 1437
1528 1523 1520 1517 1514 1513 1511 1509 1508 1507 1506 1504 1501 1498 1494 1491 1487 1484 1480 1476 1472 1469 1464 1454 1451 1449 1445 1442 1439 1437 1436 1436 1436 1435 1433 1434 1433 1433 1433 1433 1433 1431 1431
1521 1517 1513 1512 1510 1507 1506 1505 1504 1503 1501 1499 1496 1492 1488 1483 1479 1476 1472 1468 1464 1461 1457 1451 1443 1443 1439 1436 1433 1431 1429 1429 1429 1429 1427 1428 1427 1427 1427 1427 1427 1427 1427
1515 1512 1509 1507 1505 1503 1502 1502 1501 1499 1497 1494 1490 1486 1480 1476 1471 1467 1464 1460 1457 1453 1450 1446 1440 1436 1434 1431 1427 1426 1424 1423 1422 1423 1422 1421 1421 1421 1421 1422 1423 1423 1424
1511 1507 1504 1502 1501 1501 1500 1498 1497 1495 1492 1488 1483 1478 1473 1468 1463 1459 1457 1454 1451 1447 1444 1440 1435 1431 1429 1426 1424 1422 1420 1418 1416 1417 1417 1417 1416 1416 1417 1417 1418 1420 1421
1507 1503 1501 1500 1499 1498 1497 1495 1493 1490 1486 1481 1476 1471 1465 1461 1458 1453 1450 1447 1445 1441 1437 1434 1430 1426 1424 1420 1420 1418 1416 1415 1413 1413 1412 1413 1412 1412 1412 1413 1412 1415 1417
1503 1501 1499 1498 1496 1495 1493 1491 1488 1484 1480 1475 1470 1465 1460 1457 1452 1450 1446 1443 1439 1435 1432 1428 1424 1421 1418 1417 1416 1413 1411 1410 1409 1409 1408 1408 1409 1408 1408 1408 1409 1410 1413
1500 1498 1496 1494 1493 1492 1489 1486 1483 1479 1475 1471 1465 1460 1456 1453 1449 1445 1442 1438 1434 1430 1427 1423 1419 1415 1413 1412 1411 1409 1407 1405 1404 1404 1404 1403 1405 1404 1403 1403 1405 1406 1408
1497 1495 1493 1491 1490 1488 1485 1482 1478 1475 1471 1466 1461 1457 1453 1449 1445 1442 1437 1433 1429 1425 1422 1417 1413 1410 1407 1405 1404 1403 1402 1401 1399 1399 1399 1399 1400 1400 1400 1399 1399 1402 1405
1492 1491 1489 1488 1486 1484 1481 1478 1475 1470 1466 1462 1458 1453 1449 1444 1441 1437 1433 1429 1425 1421 1416 1412 1409 1406 1403 1400 1398 1396 1397 1396 1396 1396 1395 1397 1396 1397 1396 1395 1396 1398 1401